CDT,Max TemperatureF,Mean TemperatureF,Min TemperatureF,Max Dew PointF,MeanDew PointF,Min DewpointF,Max Humidity, Mean Humidity, Min Humidity, Max Sea Level PressureIn, Mean Sea Level PressureIn, Min Sea Level PressureIn, Max VisibilityMiles, Mean VisibilityMiles, Min VisibilityMiles, Max Wind SpeedMPH, Mean Wind SpeedMPH, Max Gust SpeedMPH,PrecipitationIn, CloudCover, Events, WindDirDegrees
2013-3-1,25,24,22,20,18,16,86,81,74,30.19,30.13,30.05,10,8,2,23,14,24,0.00,8,Snow,347
2013-3-2,23,17,10,17,12,5,80,72,57,30.20,30.17,30.15,10,10,10,15,10,18,0.00,4,,333
2013-3-3,27,17,7,10,7,3,85,65,40,30.14,30.10,30.07,10,10,10,8,3,,0.00,0,,304
2013-3-4,30,22,15,24,17,10,81,73,60,30.10,30.03,29.96,10,10,5,17,9,20,0.00,4,,94
2013-3-5,30,28,25,28,26,22,92,88,74,30.01,29.88,29.79,10,3,0,18,11,26,0.16,8,Snow,42
2013-3-6,30,27,24,25,23,21,86,83,79,30.30,30.21,30.01,10,10,3,20,14,25,0.00,8,,311
2013-3-7,30,24,19,23,20,16,89,79,65,30.40,30.37,30.29,10,10,7,9,5,,0.00,5,,280
2013-3-8,34,24,14,26,21,10,93,81,70,30.45,30.39,30.28,10,8,0,15,7,,0.00,1,Fog,128
2013-3-9,38,32,27,32,29,22,89,82,77,30.28,30.04,29.81,10,9,2,24,14,29,0.05,6,Rain-Snow,141
2013-3-10,42,39,36,40,36,32,93,91,78,29.84,29.71,29.59,10,2,0,17,13,,0.76,8,Fog-Rain-Snow,141
2013-3-11,40,34,30,37,31,27,94,92,88,29.79,29.63,29.55,10,4,0,18,10,24,0.05,8,Fog-Rain-Snow,245
2013-3-12,34,28,24,28,24,19,89,82,73,30.02,29.90,29.79,10,9,3,26,17,33,0.00,7,Snow,263
2013-3-13,29,24,20,19,16,12,83,69,50,30.31,30.21,30.02,10,10,10,24,16,30,0.00,2,,294
2013-3-14,31,26,21,28,22,16,93,82,69,30.31,30.22,30.06,10,8,1,14,9,,0.00,4,Snow,198
2013-3-15,35,30,25,33,29,24,94,91,85,30.07,29.89,29.73,5,3,0,15,6,18,0.06,3,Fog-Rain,124
2013-3-16,31,29,27,30,26,21,93,86,74,30.12,29.92,29.72,10,8,1,18,12,24,0.00,8,,358
2013-3-17,32,27,22,24,20,14,80,72,64,30.19,30.11,29.96,10,10,10,17,12,23,0.00,3,,54
2013-3-18,32,26,19,30,24,11,92,84,71,29.96,29.74,29.61,10,6,1,33,15,41,0.02,7,Snow,161
2013-3-19,30,22,14,15,12,7,76,66,53,30.08,29.94,29.79,10,10,10,31,23,39,0.00,3,Snow,268
2013-3-20,22,16,10,12,6,1,75,62,52,30.10,30.05,30.01,10,10,10,25,18,32,0.00,3,,294
2013-3-21,28,19,10,15,10,5,80,67,52,30.04,30.02,30.00,10,10,10,13,9,20,0.00,0,,300
2013-3-22,34,24,16,21,14,11,81,63,45,30.05,30.03,30.00,10,10,10,9,4,,0.00,0,,313
2013-3-23,38,30,23,26,21,18,85,68,48,30.12,30.06,30.01,10,10,10,14,5,16,0.00,2,,33
2013-3-24,34,32,29,27,25,23,89,79,66,30.03,29.81,29.67,10,9,1,23,14,31,0.00,8,Rain-Snow,33
2013-3-25,32,29,26,27,24,21,83,79,73,30.08,29.88,29.73,10,10,5,23,15,26,0.00,8,Rain,336
2013-3-26,39,34,30,27,24,18,86,70,49,30.25,30.17,30.08,10,10,10,14,8,20,0.00,8,,299
2013-3-27,39,34,27,27,23,17,82,64,42,30.32,30.29,30.25,10,10,10,10,7,10,0.00,5,,298
2013-3-28,44,36,27,27,21,18,77,57,36,30.35,30.31,30.27,10,10,10,8,5,,0.00,1,,292
2013-3-29,51,40,30,29,23,18,79,54,31,30.32,30.27,30.22,10,10,10,9,3,,0.00,2,,22
2013-3-30,55,42,29,41,32,22,86,69,49,30.24,30.05,29.84,10,10,7,23,9,30,0.00,2,Rain,161
2013-3-31,54,43,31,40,34,25,91,74,43,29.90,29.80,29.73,10,8,2,26,13,36,0.00,4,,278